Voltar ao catálogo

STARLINK-11325

AtivoComunicaçõesVLEO
NORAD 61538·PAYLOAD·🇺🇸 United States

Lançado Oct 15, 2024 de Vandenberg Space Force Base

Loading…

Próximas Passagens (próximas 24 horas)

TLE

AtualizadoSource: CelesTrak SupGP

Época: Sep 14, 2026, 21:09 UTC

1 61538C 24184G   26257.88173611  .00064757  00000+0  53331-3 0  2572
2 61538  53.1569  23.3617 0001089  79.3252 349.6782 15.69682366    14

Acompanhe STARLINK-11325 em tempo real com AllMySat

Download on the App Store